LPMAGCLA

Guest
Details From LPMA - Madeira
To GCLA - La Palma
Flight Number -
Tags generated
Created
Modified
Stats Distance 281 nm / 520 km
Max Altitude 27,900 ft / 8,504 m
Waypoints 4
Social Downloads 0
Likes 0
Share VATSIM

Download

Looking for another format? Having issues loading an existing format? Contact us
Advertisement - Login to hide

Notes

Basic altitude profile: - Ascent Rate: 2500ft/min - Ascent Speed: 200kts - Cruise Altitude: 22000ft - Cruise Speed: 280kts - Descent Rate: 1500ft/min - Descent Speed: 220kts Options: - Use NATs: yes - Use PACOTS: yes - Use low airways: yes - Use high airways: yes

Route

LPMA ORTIS UN728 BRICK GCLA

ID Type Via Altitude Latitude Longitude Leg Dist Tot Dist Heading (true) Name
O LPMA APT - 0 ft / 0 m 32.69770˚ -16.77445˚ - 0 nm - Madeira
ORTIS FIX - 27,900 ft / 8,504 m 31.40696˚ -16.55691˚ 78 nm 78 nm 172° / 172° -
BRICK FIX UN728 (AWY-HI) 23,500 ft / 7,163 m 29.59137˚ -16.37289˚ 109 nm 187 nm 175° / 175° -
O GCLA APT - 0 ft / 0 m 28.62648˚ -17.75561˚ 92 nm 280 nm 232° / 231° La Palma

Altitude Profile

Advertisement - Login to hide

Weather


0- 5 10 15 20 25 30 35+ Temperature / ° C

Clouds and Precipitation
Forecast for 2017-12-19 00:00 UTC. Updated an hour ago

Ground ~20,000 ft ~40,000 ft Winds

LPMA

Details ICAO LPMA (FNC)
Name Madeira
Region Portugal
Timezone Atlantic/Madeira (UTC+0.0)
Stats Elevation 192 ft / 59 m (AMSL)
Location 32.697704° -16.774449°
Runways 1
Magnetic Variation 4.980° W

METAR

LPMA 182030Z 02014KT 350V050 9999 FEW018 BKN030 17/09 Q1029

Decode

TAF

TAF LPMA 181700Z 1818/1918 02012KT 9999 FEW015 BKN025 PROB40 TEMPO 1818/1918 BKN015

Decode

Departure Runways

ID Width Length Bearing (true) Bearing (mag) Surface Threshold Offset Overrun Length
05 141 ft / 43 m 8,683 ft / 2,647 m 42.98° 47.96° Asphalt 472 ft / 144 m 0 ft / 0 m
23 141 ft / 43 m 8,683 ft / 2,647 m 222.99° 227.97° Asphalt 466 ft / 142 m 0 ft / 0 m

GCLA

Details ICAO GCLA (SPC)
Name La Palma
Region Canary Islands
Timezone Atlantic/Canary (UTC+0.0)
Stats Elevation 107 ft / 33 m (AMSL)
Location 28.626480° -17.755613°
Runways 1
Magnetic Variation 5.521° W

METAR

GCLA 182030Z 03006KT 340V080 9999 FEW030 SCT045 19/14 Q1026 RERA

Decode

TAF

TAF GCLA 182000Z 1821/1921 32005KT 9999 SCT040 TX22/1913Z TN18/1906Z BECMG 1907/1909 02010KT BECMG 1919/1921 32005KT

Decode

Destination Runways

ID Width Length Bearing (true) Bearing (mag) Surface Threshold Offset Overrun Length
01 148 ft / 45 m 7,240 ft / 2,207 m 359.02° 4.54° Asphalt 0 ft / 0 m 279 ft / 85 m
19 148 ft / 45 m 7,240 ft / 2,207 m 179.02° 184.54° Asphalt 0 ft / 0 m 236 ft / 72 m

Popular Alternatives